HEBOWX Weather Reports


Display with metric or nautical units.
time (UTC)temp
F
wind
direction
speed
MPH
gust
MPH
rain 1hr
in
rain 24hr
in
rain mn
in
humidity
%
barometer
mb
20260902203050 50 215 4.0 18.0 0.15 0.72 0.72 80 1002.5
20260902202549 50 221 5.0 18.0 0.15 0.71 0.71 81 1002.6
20260902202050 50 207 4.0 15.0 0.16 0.70 0.70 80 1002.3
20260902201549 50 284 5.0 15.0 0.16 0.70 0.70 81 1002.1
20260902201049 50 235 7.0 15.0 0.15 0.68 0.68 81 1002.4
20260902200549 50 221 5.0 11.0 0.15 0.67 0.67 81 1002.5
20260902200049 50 224 5.0 11.0 0.16 0.66 0.66 81 1001.8
20260902195549 50 256 2.0 14.0 0.16 0.65 0.64 80 1001.4
20260902195050 50 243 3.0 14.0 0.14 0.65 0.63 81 1001.7
20260902194549 50 219 6.0 14.0 0.14 0.65 0.61 80 1001.8
20260902194049 50 204 4.0 12.0 0.12 0.59 0.59 80 1001.8
20260902193549 49 212 3.0 10.0 0.12 0.58 0.58 81 1001.6
20260902193049 49 284 2.0 14.0 0.09 0.57 0.57 81 1001.6
20260902192549 49 233 4.0 14.0 0.09 0.55 0.56 80 1001.6
20260902192049 49 242 4.0 14.0 0.08 0.55 0.55 81 1001.5
20260902191549 49 103 3.0 11.0 0.08 0.54 0.54 81 1000.9
20260902191049 49 252 3.0 10.0 0.08 0.52 0.52 81 1001.4
20260902190549 49 147 0.0 10.0 0.08 0.51 0.51 81 1002.1
20260902190049 49 235 1.0 9.0 0.09 0.51 0.50 80 1001.4
20260902185549 49 193 1.0 8.0 0.09 0.51 0.49 81 1001.4
20260902185049 49 124 2.0 8.0 0.11 0.51 0.47 82 1002.3
20260902184549 48 158 1.0 8.0 0.11 0.51 0.47 81 1001.0
20260902184049 48 221 1.0 8.0 0.14 0.46 0.46 81 1001.0
20260902183549 48 194 1.0 6.0 0.14 0.46 0.46 81 1000.8
20260902183049 48 179 1.0 6.0 0.17 0.46 0.46 81 1001.1
20260902182549 48 186 0.0 13.0 0.17 0.46 0.46 82 1001.1
20260902182049 48 163 1.0 13.0 0.17 0.46 0.46 80 1001.2
20260902181549 48 212 1.0 13.0 0.17 0.46 0.46 81 1001.2
20260902181049 48 225 1.0 7.0 0.16 0.45 0.45 80 1001.6
20260902180640 48 74 1.0 12.0 0.16 0.44 0.44 81 1001.1
20260902180549 48 74 1.0 12.0 0.16 0.44 0.44 81 1001.1
20260902180049 48 273 1.0 12.0 0.13 0.41 0.41 81 1001.2
20260902175549 48 173 1.0 12.0 0.13 0.41 0.40 81 1000.9
20260902175049 48 130 0.0 14.0 0.10 0.41 0.38 81 1000.7
20260902174549 48 156 1.0 14.0 0.10 0.41 0.37 80 1000.7
20260902174049 48 165 2.0 14.0 0.07 0.35 0.35 81 1000.8
20260902173549 48 331 1.0 8.0 0.07 0.33 0.33 81 1001.8
20260902173049 48 261 0.0 7.0 0.05 0.32 0.30 81 1001.0
20260902172549 48 124 0.0 7.0 0.05 0.32 0.29 82 1001.1
20260902172049 49 107 0.0 6.0 0.05 0.32 0.28 81 1001.5
20260902171549 48 141 0.0 5.0 0.05 0.32 0.28 81 1001.8
20260902171049 48 238 0.0 5.0 0.05 0.32 0.27 82 1001.7
20260902170549 48 109 0.0 3.0 0.05 0.32 0.27 81 1002.1
20260902170049 48 82 0.0 10.0 0.06 0.32 0.27 81 1002.4
20260902165549 48 145 0.0 10.0 0.06 0.32 0.27 81 1001.7
20260902165049 48 103 0.0 10.0 0.07 0.32 0.26 81 1002.6
20260902164549 48 172 1.0 7.0 0.07 0.32 0.26 81 1002.3
20260902164049 48 214 0.0 5.0 0.07 0.26 0.26 81 1002.4
20260902163549 48 127 0.0 5.0 0.07 0.25 0.25 81 1002.6
20260902163049 48 64 0.0 7.0 0.08 0.25 0.25 81 1003.0
20260902162549 48 179 0.0 7.0 0.08 0.25 0.25 81 1002.5
20260902162049 48 193 0.0 7.0 0.09 0.25 0.24 81 1002.6
20260902161549 48 191 1.0 7.0 0.09 0.25 0.23 81 1002.3
20260902161049 48 194 0.0 7.0 0.11 0.25 0.23 80 1003.0
20260902160549 48 228 0.0 5.0 0.11 0.25 0.22 81 1002.8
20260902160049 48 166 0.0 4.0 0.10 0.25 0.21 81 1002.8
20260902155549 49 103 0.0 4.0 0.10 0.25 0.20 81 1002.7
20260902155049 49 103 0.0 3.0 0.10 0.25 0.20 81 1002.5
20260902154549 48 103 0.0 0.0 0.10 0.25 0.19 81 1002.5
20260902154049 48 357 0.0 5.0 0.09 0.19 0.19 81 1002.5
20260902153549 48 204 0.0 5.0 0.09 0.19 0.19 81 1003.0
20260902153050 48 96 0.0 5.0 0.07 0.18 0.18 81 1003.0
20260902152549 48 235 0.0 5.0 0.07 0.17 0.17 81 1002.5
20260902152049 48 180 0.0 5.0 0.05 0.15 0.16 81 1003.0
20260902151549 48 180 0.0 5.0 0.05 0.15 0.14 81 1003.5
20260902151049 48 0 1.0 1.0 0.02 0.15 0.13 81 1003.7
20260902150549 48 180 0.0 1.0 0.02 0.15 0.12 78 1002.7
20260902150049 48 166 0.0 5.0 0.01 0.15 0.11 81 1003.7
20260902145549 48 218 0.0 5.0 0.01 0.15 0.10 81 1003.6
20260902145049 48 82 1.0 5.0 0.01 0.15 0.09 81 1002.9
20260902144549 48 61 0.0 6.0 0.01 0.15 0.09 81 1003.3
20260902144049 48 247 0.0 6.0 0.02 0.14 0.09 80 1002.8
20260902143549 48 284 0.0 6.0 0.02 0.14 0.09 80 1003.5
20260902143049 48 176 1.0 4.0 0.03 0.14 0.09 81 1003.8
20260902142549 49 214 0.0 3.0 0.03 0.14 0.09 77 1002.9
20260902142048 48 190 0.0 6.0 0.05 0.14 0.09 80 1004.0
20260902141549 48 254 0.0 6.0 0.05 0.14 0.09 80 1003.6
20260902141049 48 252 0.0 6.0 0.05 0.14 0.09 77 1004.1
20260902140548 49 194 0.0 4.0 0.05 0.14 0.09 80 1003.7
20260902140048 48 116 0.0 4.0 0.05 0.14 0.09 80 1003.8
20260902135548 48 196 0.0 7.0 0.05 0.14 0.09 80 1004.4
20260902135048 48 130 0.0 7.0 0.04 0.14 0.09 81 1003.5
20260902134548 49 99 0.0 7.0 0.04 0.14 0.08 81 1003.8
20260902134048 48 299 0.0 3.0 0.03 0.11 0.07 81 1004.1
20260902133548 49 180 0.0 10.0 0.03 0.11 0.07 81 1003.9
20260902133049 49 193 0.0 10.0 0.02 0.11 0.06 81 1004.9
20260902132548 49 249 0.0 10.0 0.02 0.11 0.06 81 1003.6
20260902132048 49 205 1.0 5.0 0.00 0.11 0.06 80 1003.6
20260902131548 48 210 0.0 9.0 0.00 0.11 0.05 80 1003.9
20260902131048 49 217 0.0 9.0 0.00 0.11 0.04 80 1004.8
20260902130549 49 235 0.0 9.0 0.00 0.11 0.04 79 1003.8
20260902130050 49 189 1.0 5.0 0.00 0.11 0.04 79 1003.8
20260902125548 49 123 0.0 5.0 0.00 0.11 0.04 79 1003.6
20260902125048 48 162 1.0 7.0 0.00 0.11 0.04 78 1003.6
20260902124548 49 180 0.0 7.0 0.00 0.11 0.04 78 1004.0
20260902124048 49 239 0.0 7.0 0.00 0.12 0.04 78 1003.7
20260902123548 49 207 0.0 10.0 0.00 0.12 0.04 78 1003.7
20260902123048 49 273 1.0 10.0 0.00 0.12 0.04 79 1004.7
20260902122548 49 89 0.0 10.0 0.00 0.12 0.04 79 1004.3
20260902122048 49 221 3.0 8.0 0.00 0.12 0.04 79 1004.9
20260902121548 49 176 0.0 8.0 0.00 0.12 0.04 78 1004.7
20260902121048 49 183 1.0 7.0 0.00 0.12 0.04 78 1005.8
20260902120548 49 130 1.0 7.0 0.00 0.12 0.04 78 1005.0
20260902120048 49 207 0.0 6.0 0.00 0.12 0.04 78 1006.2
20260902115548 49 267 0.0 12.0 0.00 0.12 0.04 78 1005.1
20260902115048 49 147 1.0 12.0 0.00 0.12 0.04 78 1004.7
20260902114548 49 197 2.0 12.0 0.00 0.12 0.04 78 1005.3
20260902114049 49 189 1.0 8.0 0.00 0.13 0.04 78 1005.1
20260902113548 49 201 1.0 8.0 0.00 0.13 0.04 78 1004.9
20260902113048 49 260 0.0 8.0 0.00 0.13 0.04 78 1005.5
20260902112548 49 197 0.0 7.0 0.00 0.13 0.04 78 1005.5
20260902112048 49 219 1.0 7.0 0.00 0.13 0.04 78 1005.1
20260902111548 49 224 1.0 6.0 0.00 0.13 0.04 79 1005.3
20260902111049 49 228 0.0 11.0 0.00 0.13 0.04 78 1006.6
20260902110548 49 256 2.0 11.0 0.00 0.13 0.04 79 1005.4
20260902110149 49 201 0.0 11.0 0.00 0.13 0.04 78 1006.4
20260902110048 49 201 0.0 11.0 0.00 0.13 0.04 78 1006.4
20260902105548 49 212 1.0 9.0 0.00 0.13 0.04 79 1006.8
20260902105048 49 274 0.0 9.0 0.00 0.13 0.04 79 1005.6
20260902104548 49 211 1.0 4.0 0.00 0.13 0.04 79 1005.6
20260902104048 49 239 0.0 11.0 0.00 0.13 0.04 79 1006.2
20260902103548 49 236 2.0 11.0 0.00 0.13 0.04 79 1005.8
20260902103048 49 245 1.0 11.0 0.00 0.13 0.04 79 1005.7
20260902102548 49 261 3.0 9.0 0.00 0.13 0.04 79 1005.7
20260902102048 49 163 2.0 15.0 0.00 0.13 0.04 79 1005.8
20260902101548 49 180 3.0 15.0 0.00 0.13 0.04 79 1006.4
20260902101048 49 198 2.0 15.0 0.00 0.13 0.04 79 1007.7
20260902100548 49 218 4.0 10.0 0.00 0.13 0.04 79 1006.7
20260902100048 49 222 1.0 10.0 0.00 0.13 0.04 79 1006.6
20260902095548 49 161 2.0 10.0 0.00 0.13 0.04 79 1006.0
20260902094548 49 193 2.0 9.0 0.00 0.13 0.04 79 1007.2
20260902094048 49 232 3.0 9.0 0.00 0.13 0.04 79 1006.2
20260902093548 49 180 1.0 9.0 0.00 0.13 0.04 79 1007.4
20260902093048 50 249 0.0 9.0 0.00 0.13 0.04 79 1006.7
20260902092704 50 260 1.0 6.0 0.00 0.13 0.04 79 1007.2
20260902092548 50 260 1.0 6.0 0.00 0.13 0.04 79 1007.2
20260902092048 49 224 2.0 9.0 0.00 0.13 0.04 79 1006.9
20260902091549 49 198 1.0 9.0 0.00 0.13 0.04 79 1006.5
20260902091048 49 205 0.0 9.0 0.00 0.13 0.04 79 1008.3
20260902090548 49 168 1.0 7.0 0.00 0.13 0.04 79 1006.5
20260902090049 49 135 2.0 7.0 0.00 0.13 0.04 79 1006.9
20260902085549 49 201 2.0 13.0 0.00 0.13 0.04 79 1007.0
20260902085048 49 239 3.0 13.0 0.00 0.13 0.04 78 1006.6
20260902084548 49 226 1.0 13.0 0.00 0.13 0.04 78 1006.6
20260902084048 49 215 2.0 14.0 0.00 0.13 0.04 79 1006.7
20260902083548 49 257 2.0 14.0 0.00 0.13 0.04 79 1006.8
20260902083048 49 207 1.0 14.0 0.00 0.13 0.04 79 1007.2
20260902082548 49 238 0.0 10.0 0.00 0.13 0.04 79 1007.3
20260902082048 50 233 2.0 10.0 0.00 0.13 0.04 79 1006.8
20260902081548 49 147 1.0 9.0 0.00 0.13 0.04 79 1008.0
20260902081048 49 179 1.0 9.0 0.00 0.13 0.04 79 1008.6
20260902080548 49 232 2.0 9.0 0.00 0.13 0.04 79 1007.3
20260902080048 49 224 1.0 16.0 0.00 0.13 0.04 78 1007.5
20260902075548 49 240 1.0 16.0 0.00 0.13 0.04 79 1007.4
20260902075048 49 224 0.0 16.0 0.00 0.13 0.04 79 1008.0
20260902074548 49 191 3.0 7.0 0.00 0.13 0.04 79 1007.3
20260902074048 49 210 1.0 16.0 0.00 0.13 0.04 79 1007.4
20260902073548 49 210 3.0 16.0 0.00 0.13 0.04 79 1007.4
20260902073048 50 259 1.0 16.0 0.00 0.13 0.04 79 1007.4
20260902072548 50 186 6.0 13.0 0.00 0.13 0.04 79 1007.4
20260902072048 50 219 1.0 12.0 0.00 0.13 0.04 78 1007.5
20260902071549 50 233 1.0 12.0 0.00 0.13 0.04 78 1007.5
20260902071048 50 232 5.0 12.0 0.00 0.13 0.04 79 1007.6
20260902070548 50 218 1.0 12.0 0.00 0.13 0.04 78 1007.5
20260902070048 50 240 0.0 12.0 0.00 0.13 0.04 78 1007.5
20260902065548 50 280 1.0 10.0 0.00 0.13 0.04 78 1007.5
20260902065048 50 208 3.0 9.0 0.01 0.13 0.04 78 1007.5
20260902064548 50 243 2.0 9.0 0.01 0.13 0.04 78 1007.5
20260902064048 50 205 1.0 16.0 0.02 0.12 0.04 78 1007.7
20260902063548 50 183 3.0 16.0 0.02 0.12 0.04 78 1007.7
20260902063048 50 126 3.0 16.0 0.03 0.12 0.04 79 1007.7
20260902062548 50 131 6.0 12.0 0.03 0.12 0.04 78 1007.6
20260902062048 50 221 0.0 12.0 0.04 0.12 0.04 79 1007.7
20260902061548 50 215 6.0 8.0 0.04 0.12 0.04 79 1007.7
20260902061048 50 224 2.0 12.0 0.04 0.12 0.04 79 1007.8
20260902060548 50 226 1.0 12.0 0.04 0.12 0.04 79 1007.8
20260902060048 51 60 1.0 12.0 0.04 0.12 0.04 78 1007.9
20260902055548 51 224 0.0 11.0 0.04 0.12 0.04 78 1008.0
20260902055048 51 197 1.0 11.0 0.03 0.12 0.03 79 1008.0
20260902054548 51 222 1.0 7.0 0.03 0.12 0.03 79 1008.2
20260902054048 51 124 1.0 7.0 0.02 0.09 0.03 79 1008.3
20260902053548 51 226 0.0 9.0 0.02 0.09 0.02 78 1008.4
20260902053048 51 245 0.0 9.0 0.01 0.09 0.02 78 1008.4
20260902052547 51 169 1.0 9.0 0.01 0.09 0.01 78 1008.9
20260902052048 51 253 1.0 5.0 0.00 0.09 0.00 78 1008.6
20260902051547 51 246 0.0 5.0 0.00 0.09 0.00 78 1008.7
20260902051138 51 175 0.0 5.0 0.00 0.09 0.00 78 1009.3
20260902051047 51 175 0.0 5.0 0.00 0.09 0.00 78 1009.3
20260902050547 51 175 0.0 7.0 0.00 0.09 0.00 78 1008.7
20260902050047 51 180 0.0 7.0 0.00 0.09 0.00 79 1008.4
20260902045547 51 222 0.0 7.0 0.00 0.09 0.00 80 1009.1
20260902045047 51 212 0.0 7.0 0.00 0.09 0.00 79 1008.5
20260902044547 51 228 2.0 7.0 0.00 0.09 0.00 79 1008.6
20260902044047 51 229 0.0 7.0 0.00 0.09 0.00 78 1009.1
20260902043547 50 233 1.0 7.0 0.00 0.09 0.00 79 1009.3
20260902043047 51 208 0.0 9.0 0.00 0.09 0.00 78 1009.1
20260902042547 51 228 0.0 9.0 0.00 0.09 0.00 78 1008.7
20260902042047 50 239 2.0 9.0 0.00 0.09 0.00 77 1008.7
20260902041547 51 260 1.0 7.0 0.00 0.09 0.00 77 1009.2
20260902041047 51 226 0.0 6.0 0.00 0.09 0.00 78 1010.2
20260902040547 51 232 0.0 6.0 0.00 0.09 0.00 78 1009.3
20260902040049 51 214 1.0 9.0 0.00 0.09 0.00 77 1008.7
20260902035547 50 240 0.0 9.0 0.00 0.09 0.00 78 1008.7
20260902035047 50 243 1.0 9.0 0.00 0.09 0.00 77 1009.8
20260902034548 50 240 2.0 8.0 0.00 0.09 0.00 77 1008.7
20260902034047 50 205 2.0 7.0 0.00 0.09 0.00 77 1008.7
20260902033547 50 219 1.0 7.0 0.00 0.09 0.00 77 1008.7
20260902033047 50 187 0.0 5.0 0.00 0.09 0.00 77 1009.1
20260902032547 50 200 1.0 5.0 0.00 0.09 0.00 77 1009.2
20260902032047 50 134 0.0 7.0 0.00 0.09 0.00 77 1008.8
20260902031547 51 205 0.0 7.0 0.00 0.09 0.00 77 1008.8
20260902031047 51 238 1.0 7.0 0.00 0.09 0.00 77 1010.4
20260902030548 50 256 4.0 6.0 0.00 0.09 0.00 77 1008.8
20260902030047 51 222 0.0 8.0 0.00 0.09 0.00 77 1008.8
20260902025547 51 233 2.0 8.0 0.00 0.09 0.00 77 1009.4
20260902025047 51 211 0.0 8.0 0.00 0.09 0.00 77 1008.8
20260902024547 51 229 1.0 6.0 0.00 0.09 0.00 77 1008.7
20260902024047 51 187 1.0 6.0 0.00 0.09 0.00 77 1008.7
20260902023547 51 240 0.0 5.0 0.00 0.09 0.00 77 1008.8
20260902023047 51 159 0.0 9.0 0.00 0.09 0.00 77 1009.9
20260902022547 51 184 0.0 9.0 0.00 0.09 0.00 77 1008.7
20260902022047 51 212 0.0 9.0 0.00 0.09 0.00 77 1008.7
20260902021547 51 215 3.0 8.0 0.00 0.09 0.00 77 1009.2
20260902021047 51 191 2.0 8.0 0.00 0.09 0.00 77 1009.4
20260902020547 51 231 1.0 8.0 0.00 0.09 0.00 77 1008.7
20260902020047 51 224 3.0 9.0 0.00 0.09 0.00 77 1009.2
20260902015547 51 232 2.0 9.0 0.00 0.09 0.00 77 1008.7
20260902015047 51 238 3.0 9.0 0.00 0.09 0.00 76 1008.7
20260902014547 51 228 1.0 5.0 0.00 0.09 0.00 77 1008.7
20260902014047 51 231 0.0 3.0 0.00 0.09 0.00 77 1008.6
20260902013547 51 245 0.0 3.0 0.00 0.09 0.00 77 1008.7
20260902013047 51 217 0.0 6.0 0.00 0.09 0.00 76 1009.2
20260902012547 51 182 0.0 6.0 0.00 0.09 0.00 76 1008.7
20260902012047 51 226 1.0 6.0 0.00 0.09 0.00 76 1009.2
20260902011547 52 221 0.0 7.0 0.00 0.09 0.00 76 1008.7
20260902011047 51 240 2.0 7.0 0.00 0.09 0.00 76 1009.7
20260902010547 51 222 3.0 7.0 0.00 0.09 0.00 77 1009.4
20260902010047 52 246 1.0 7.0 0.00 0.09 0.00 77 1008.9
20260902005547 52 247 3.0 7.0 0.00 0.09 0.00 77 1009.2
20260902005047 52 243 2.0 7.0 0.00 0.09 0.00 77 1008.6
20260902004547 52 264 0.0 7.0 0.00 0.09 0.00 76 1009.6
20260902004047 52 214 0.0 5.0 0.00 0.09 0.00 76 1008.7
20260902003548 52 215 1.0 6.0 0.00 0.09 0.00 76 1009.7
20260902003047 52 228 0.0 6.0 0.00 0.09 0.00 76 1008.8
20260902002547 52 240 1.0 6.0 0.00 0.09 0.00 76 1008.8
20260902002048 52 225 0.0 5.0 0.00 0.09 0.00 76 1009.5
20260902001547 51 246 0.0 5.0 0.00 0.09 0.00 76 1009.3
20260902001047 52 239 0.0 5.0 0.00 0.09 0.00 76 1009.4
20260902000547 52 215 1.0 6.0 0.00 0.09 0.00 75 1009.3
20260902000047 52 217 0.0 6.0 0.00 0.09 0.00 76 1011.3
20260901235548 52 232 2.0 6.0 0.00 0.09 0.00 76 1009.6
20260901235047 52 236 2.0 5.0 0.00 0.09 0.00 76 1008.8
20260901234547 52 208 1.0 6.0 0.00 0.09 0.00 75 1009.5
20260901234048 52 226 0.0 6.0 0.00 0.09 0.00 75 1009.6
20260901233547 52 232 0.0 6.0 0.00 0.09 0.09 72 1009.3
20260901233047 52 229 3.0 6.0 0.00 0.09 0.09 72 1010.6
20260901232547 52 225 0.0 6.0 0.00 0.09 0.09 70 1008.8
20260901232047 52 242 1.0 6.0 0.00 0.09 0.09 74 1008.8
20260901231547 52 232 0.0 3.0 0.00 0.09 0.09 69 1009.4
20260901231047 52 221 0.0 7.0 0.00 0.09 0.09 69 1011.1
20260901230547 53 243 1.0 7.0 0.00 0.09 0.09 73 1010.3
20260901230047 53 263 1.0 7.0 0.00 0.09 0.09 73 1009.2
20260901225547 53 207 0.0 6.0 0.00 0.09 0.09 73 1008.8
20260901225047 53 219 0.0 4.0 0.00 0.09 0.09 73 1009.4
20260901224547 53 221 1.0 7.0 0.00 0.09 0.09 73 1009.1
20260901224047 53 229 1.0 7.0 0.00 0.09 0.09 73 1009.1
20260901223548 53 217 2.0 7.0 0.00 0.09 0.09 74 1008.9
20260901223047 53 243 1.0 6.0 0.01 0.09 0.09 74 1009.1
20260901222547 53 239 2.0 6.0 0.01 0.09 0.09 74 1009.1
20260901222047 53 214 0.0 6.0 0.01 0.09 0.09 73 1009.7
20260901221547 53 226 3.0 5.0 0.01 0.09 0.09 68 1009.4
20260901221047 53 217 0.0 7.0 0.02 0.09 0.09 73 1010.2
20260901220547 53 221 1.0 7.0 0.02 0.09 0.09 73 1008.9
20260901220047 53 231 2.0 7.0 0.04 0.09 0.09 74 1009.6
20260901215547 53 249 3.0 6.0 0.04 0.09 0.09 74 1009.6
20260901215047 53 236 0.0 6.0 0.04 0.09 0.09 74 1009.6
20260901214547 52 235 1.0 7.0 0.04 0.09 0.09 75 1008.9
20260901214047 53 235 1.0 7.0 0.04 0.09 0.09 75 1009.3
20260901213547 53 219 0.0 7.0 0.04 0.09 0.09 75 1009.6
20260901213047 53 225 2.0 5.0 0.03 0.08 0.08 74 1008.8
20260901212547 53 222 2.0 7.0 0.03 0.08 0.08 76 1009.3
20260901212047 53 247 0.0 7.0 0.03 0.08 0.08 75 1009.6
20260901211547 53 256 3.0 7.0 0.03 0.08 0.08 75 1008.8
20260901211047 53 231 1.0 7.0 0.02 0.08 0.08 75 1010.4
20260901210547 53 260 0.0 7.0 0.02 0.07 0.07 75 1009.3
20260901210047 53 282 3.0 7.0 0.00 0.06 0.06 75 1009.4
20260901205547 53 204 1.0 4.0 0.00 0.05 0.05 75 1009.8
20260901205047 53 194 1.0 5.0 0.00 0.05 0.05 74 1009.3
20260901204547 54 242 0.0 5.0 0.00 0.05 0.05 74 1008.6
20260901204047 54 207 1.0 5.0 0.00 0.05 0.05 74 1009.1
20260901203547 54 242 4.0 5.0 0.00 0.05 0.05 74 1008.8